�N����,����,�~����,�C��,���x,�C��,����,���ϕ���,�ő�u�ԕ���,�ő厞����,���˗�,�I�_���x,�n�����x,�ő啗���N��,DTYPE
"23/07/24","00:10",0.0,26.0,79.3,1008.1,288.9,0.8,1.8,245.5,0.00,22.2,25.5,"00:08:40",1
"23/07/24","00:20",0.0,25.9,79.5,1008.3,324.3,1.0,1.6,332.9,0.00,22.1,25.6,"00:15:28",1
"23/07/24","00:30",0.0,25.8,79.8,1008.1,324.9,0.5,1.0,266.8,0.00,22.1,25.6,"00:26:56",1
"23/07/24","00:40",0.0,25.8,80.6,1008.1,323.1,0.7,1.4,336.4,0.00,22.2,25.5,"00:37:04",1
"23/07/24","00:50",0.0,25.3,81.5,1008.1,295.6,0.6,1.3,343.2,0.00,21.9,25.5,"00:47:12",1
"23/07/24","01:00",0.0,25.1,82.3,1008.1,329.1,1.0,2.0,342.6,0.00,21.9,25.4,"00:53:12",1
"23/07/24","01:10",0.0,24.9,82.8,1008.1,312.7,0.6,1.0,333.8,0.00,21.8,25.3,"01:09:44",1
"23/07/24","01:20",0.0,24.7,83.4,1008.3,312.4,0.8,1.3,326.2,0.00,21.7,25.3,"01:11:04",1
"23/07/24","01:30",0.0,24.7,83.7,1008.1,327.6,0.8,1.3,328.5,0.00,21.8,25.4,"01:20:48",1
"23/07/24","01:40",0.0,24.7,83.9,1008.6,307.1,0.7,1.6,304.1,0.00,21.8,25.2,"01:34:16",1
"23/07/24","01:50",0.0,24.5,84.1,1008.3,308.1,0.6,1.3,344.6,0.00,21.7,25.3,"01:45:04",1
"23/07/24","02:00",0.0,24.6,85.0,1008.3,335.8,0.8,1.3,342.6,0.00,22.0,25.2,"01:52:40",1
"23/07/24","02:10",0.0,24.4,85.7,1008.6,307.7,0.7,1.1,332.8,0.00,21.9,25.2,"02:03:12",1
"23/07/24","02:20",0.0,24.4,86.2,1008.3,307.9,0.5,0.9,318.3,0.00,22.0,25.2,"02:18:56",1
"23/07/24","02:30",0.0,24.4,86.5,1008.6,323.9,0.6,0.9,336.2,0.00,22.0,25.2,"02:21:12",1
"23/07/24","02:40",0.0,24.5,86.9,1008.3,323.4,0.7,1.1,327.2,0.00,22.2,25.1,"02:31:36",1
"23/07/24","02:50",0.0,24.5,87.2,1008.6,308.1,0.8,1.2,325.6,0.00,22.3,25.2,"02:44:56",1
"23/07/24","03:00",0.0,24.6,87.3,1007.8,286.6,0.7,1.1,254.7,0.00,22.4,25.1,"02:50:08",1
"23/07/24","03:10",0.0,24.6,87.4,1008.6,299.6,0.7,1.1,329.8,0.00,22.4,25.2,"03:07:04",1
"23/07/24","03:20",0.0,24.7,87.4,1008.3,317.6,0.8,1.3,303.6,0.00,22.5,24.7,"03:10:16",1
"23/07/24","03:30",0.0,24.7,87.3,1008.3,333.8,0.8,1.2,332.8,0.00,22.5,25.0,"03:23:52",1
"23/07/24","03:40",0.0,24.7,87.1,1008.1,321.8,0.7,1.2,308.6,0.00,22.4,24.8,"03:32:00",1
"23/07/24","03:50",0.0,24.7,87.1,1008.3,317.4,0.8,1.3,319.6,0.00,22.4,25.0,"03:48:16",1
"23/07/24","04:00",0.0,24.6,87.1,1008.6,311.4,0.7,1.4,247.8,0.00,22.4,25.1,"03:52:56",1
"23/07/24","04:10",0.0,24.5,87.1,1008.1,293.5,0.7,1.1,297.7,0.00,22.3,24.8,"04:09:20",1
"23/07/24","04:20",0.0,24.4,87.2,1008.3,298.4,1.0,1.6,333.9,0.00,22.2,24.8,"04:14:48",1
"23/07/24","04:30",0.0,24.3,87.3,1008.3,327.1,0.6,1.2,356.3,0.00,22.1,25.0,"04:29:52",1
"23/07/24","04:40",0.0,24.1,87.5,1008.3,311.2,0.7,1.2,335.7,0.00,21.9,24.8,"04:32:32",1
"23/07/24","04:50",0.0,24.0,87.9,1008.6,313.3,0.8,1.4,306.8,0.00,21.9,24.8,"04:46:00",1
"23/07/24","05:00",0.0,23.9,88.3,1008.6,332.7,1.0,1.4,334.1,0.00,21.9,24.7,"04:51:36",1
"23/07/24","05:10",0.0,23.8,88.6,1008.8,338.0,0.8,1.2,349.8,0.00,21.8,24.8,"05:00:24",1
"23/07/24","05:20",0.0,23.8,89.0,1008.8,335.1,1.0,1.7,344.3,0.00,21.9,24.8,"05:12:08",1
"23/07/24","05:30",0.0,23.6,89.3,1008.8,296.6,0.8,1.1,325.5,0.00,21.8,24.4,"05:21:44",1
"23/07/24","05:40",0.0,23.7,89.5,1009.3,296.0,0.7,1.1,302.7,0.00,21.9,24.6,"05:33:44",1
"23/07/24","05:50",0.0,23.9,89.9,1008.8,290.1,0.6,1.0,274.4,0.01,22.2,24.6,"05:45:28",1
"23/07/24","06:00",0.0,24.4,90.0,1008.8,316.2,0.6,1.2,313.6,0.02,22.7,24.6,"05:51:12",1
"23/07/24","06:10",0.0,25.1,89.9,1009.0,330.7,0.6,1.0,18.7,0.04,23.4,24.6,"06:04:16",1
"23/07/24","06:20",0.0,25.8,89.2,1009.0,346.3,0.7,1.3,327.7,0.06,23.9,24.4,"06:11:52",1
"23/07/24","06:30",0.0,26.5,87.5,1008.6,5.0,0.6,1.4,40.3,0.06,24.3,24.7,"06:20:08",1
"23/07/24","06:40",0.0,27.2,84.9,1008.8,359.4,0.6,1.2,7.4,0.07,24.5,24.6,"06:31:28",1
"23/07/24","06:50",0.0,28.0,81.0,1008.6,27.1,0.7,2.2,6.8,0.10,24.5,24.5,"06:47:04",1
"23/07/24","07:00",0.0,28.5,76.7,1008.6,62.8,0.6,1.4,83.5,0.11,24.0,24.4,"06:52:56",1
"23/07/24","07:10",0.0,29.2,73.8,1008.3,88.0,0.6,1.8,25.7,0.13,24.1,24.4,"07:09:28",1
"23/07/24","07:20",0.0,29.4,71.3,1008.3,74.6,0.7,1.7,119.5,0.14,23.7,24.6,"07:18:32",1
"23/07/24","07:30",0.0,29.7,69.5,1008.6,64.8,0.7,2.2,17.8,0.18,23.6,24.7,"07:20:02",1
"23/07/24","07:40",0.0,30.2,69.1,1009.3,107.6,0.7,1.4,62.6,0.20,23.9,24.7,"07:30:08",1
"23/07/24","07:50",0.0,30.3,67.1,1009.0,116.9,1.0,2.1,113.7,0.22,23.6,24.6,"07:43:52",1
"23/07/24","08:00",0.0,29.9,67.5,1009.3,148.3,1.1,2.7,138.8,0.24,23.3,24.5,"07:50:48",1
"23/07/24","08:10",0.0,30.2,66.8,1009.7,123.8,1.2,3.4,125.7,0.27,23.4,24.5,"08:03:04",1
"23/07/24","08:20",0.0,30.9,66.2,1010.0,107.5,1.0,3.1,107.9,0.29,23.9,24.6,"08:12:56",1
"23/07/24","08:30",0.0,31.0,63.6,1010.2,119.5,0.7,2.1,234.9,0.30,23.3,24.7,"08:26:56",1
"23/07/24","08:40",0.0,31.0,64.1,1010.2,153.5,1.0,3.1,151.3,0.32,23.5,24.7,"08:32:00",1
"23/07/24","08:50",0.0,31.2,63.5,1010.7,155.0,1.2,2.8,217.1,0.33,23.5,24.7,"08:48:32",1
"23/07/24","09:00",0.0,31.7,64.5,1010.7,155.5,0.6,1.4,23.4,0.32,24.2,24.8,"08:50:24",1
"23/07/24","09:10",0.0,31.5,61.1,1010.9,165.9,1.1,3.3,227.3,0.39,23.1,24.9,"09:09:44",1
"23/07/24","09:20",0.0,31.3,62.3,1010.9,168.5,1.6,3.2,212.5,0.41,23.3,25.1,"09:10:24",1
"23/07/24","09:30",0.0,31.7,63.1,1010.9,169.2,1.3,2.8,189.5,0.43,23.9,24.8,"09:23:20",1
"23/07/24","09:40",0.0,32.0,60.4,1011.2,152.6,1.5,2.8,210.4,0.44,23.4,25.0,"09:38:24",1
"23/07/24","09:50",0.0,31.7,59.9,1010.7,214.9,1.5,3.2,217.6,0.46,23.0,24.8,"09:41:12",1
"23/07/24","10:00",0.0,32.5,58.8,1010.9,135.9,1.2,3.2,142.8,0.48,23.4,24.9,"09:51:04",1
"23/07/24","10:10",0.0,32.5,59.9,1010.7,166.8,1.8,4.1,201.2,0.50,23.7,25.2,"10:00:40",1
"23/07/24","10:20",0.0,33.3,58.7,1010.7,69.9,0.6,2.0,351.8,0.46,24.2,25.0,"10:13:12",1
"23/07/24","10:30",0.0,33.1,56.0,1010.7,176.7,1.5,3.5,197.2,0.51,23.2,25.2,"10:23:52",1
"23/07/24","10:40",0.0,32.5,56.4,1010.9,176.9,2.0,3.9,220.4,0.48,22.7,25.4,"10:33:20",1
"23/07/24","10:50",0.0,33.5,55.7,1010.7,167.6,1.1,2.9,184.7,0.57,23.5,25.5,"10:49:28",1
"23/07/24","11:00",0.0,33.3,55.1,1010.7,175.5,1.6,3.3,203.7,0.49,23.1,25.4,"10:57:36",1
"23/07/24","11:10",0.0,33.6,56.5,1010.7,144.7,1.5,3.7,143.9,0.54,23.8,25.6,"11:01:04",1
"23/07/24","11:20",0.0,33.6,54.4,1010.4,198.9,1.7,4.0,227.1,0.57,23.2,25.5,"11:14:48",1
"23/07/24","11:30",0.0,33.1,55.2,1010.2,163.0,0.8,2.2,121.9,0.22,22.9,25.8,"11:27:52",1
"23/07/24","11:40",0.0,33.7,54.7,1010.4,151.7,1.1,2.9,225.8,0.52,23.4,26.0,"11:38:48",1
"23/07/24","11:50",0.0,34.1,53.8,1010.2,224.3,2.0,3.9,238.8,0.61,23.4,25.9,"11:45:28",1
"23/07/24","12:00",0.0,34.7,52.3,1010.2,303.1,1.2,3.2,202.2,0.62,23.5,25.7,"11:50:40",1
"23/07/24","12:10",0.0,34.0,52.9,1010.2,136.8,1.1,2.5,137.1,0.30,23.1,26.0,"12:00:56",1
"23/07/24","12:20",0.0,33.6,53.0,1009.7,316.2,0.8,3.1,325.7,0.22,22.7,26.1,"12:19:20",1
"23/07/24","12:30",0.0,33.2,55.9,1009.5,248.4,1.6,3.6,237.2,0.27,23.2,26.3,"12:27:44",1
"23/07/24","12:40",0.0,34.1,52.3,1009.3,282.5,1.0,2.5,237.8,0.44,23.0,26.3,"12:34:00",1
"23/07/24","12:50",0.0,33.9,52.3,1009.3,229.0,1.2,3.3,222.2,0.30,22.8,26.3,"12:46:08",1
"23/07/24","13:00",0.0,33.2,55.1,1009.0,262.2,1.0,3.6,231.5,0.15,23.0,26.3,"12:50:16",1
"23/07/24","13:10",0.0,32.7,55.5,1008.6,216.8,1.3,2.8,211.1,0.13,22.7,26.2,"13:05:44",1
"23/07/24","13:20",0.0,33.8,51.6,1008.3,273.2,1.5,4.0,233.5,0.41,22.5,26.4,"13:13:28",1
"23/07/24","13:30",0.0,33.7,52.7,1008.3,346.4,1.1,4.8,352.3,0.19,22.7,26.3,"13:25:28",1
"23/07/24","13:40",0.0,34.3,50.5,1008.6,258.1,1.3,3.1,224.3,0.39,22.6,26.4,"13:34:48",1
"23/07/24","13:50",0.0,34.0,51.2,1008.6,224.9,1.3,2.9,226.9,0.24,22.5,26.3,"13:43:28",1
"23/07/24","14:00",0.0,34.2,51.1,1008.6,242.4,1.3,3.3,235.3,0.30,22.7,26.4,"13:52:32",1
"23/07/24","14:10",0.0,35.2,46.0,1008.6,247.3,1.5,3.7,238.5,0.51,21.9,26.2,"14:09:20",1
"23/07/24","14:20",0.0,35.4,45.6,1008.8,227.0,1.6,3.4,171.2,0.47,21.9,26.7,"14:18:24",1
"23/07/24","14:30",0.0,35.8,45.4,1008.6,265.3,1.2,3.4,342.8,0.45,22.2,26.7,"14:28:00",1
"23/07/24","14:40",0.0,34.8,46.1,1009.0,280.7,1.7,3.6,330.2,0.28,21.5,26.6,"14:36:16",1
"23/07/24","14:50",0.0,35.4,46.7,1008.6,291.1,1.3,3.1,320.4,0.42,22.3,26.7,"14:47:36",1
"23/07/24","15:00",0.0,34.9,47.9,1008.3,283.4,1.1,3.4,238.0,0.24,22.3,26.5,"14:54:16",1
"23/07/24","15:10",0.0,36.0,47.1,1008.6,208.5,0.8,2.9,226.7,0.41,23.0,26.7,"15:00:02",1
"23/07/24","15:20",0.0,36.0,45.7,1008.6,241.1,1.6,4.9,232.9,0.39,22.5,26.7,"15:17:04",1
"23/07/24","15:30",0.0,35.6,44.8,1008.8,283.3,1.3,3.4,311.0,0.32,21.8,26.6,"15:28:16",1
"23/07/24","15:40",0.0,35.5,46.1,1008.3,305.5,1.6,3.3,346.7,0.34,22.2,26.6,"15:30:24",1
"23/07/24","15:50",0.0,35.3,44.9,1008.1,332.4,2.0,3.7,342.2,0.28,21.6,26.9,"15:45:36",1
"23/07/24","16:00",0.0,35.4,46.7,1007.8,328.9,1.6,3.6,330.9,0.29,22.3,26.8,"15:53:04",1
"23/07/24","16:10",0.0,35.0,47.3,1008.1,328.2,2.1,4.4,329.3,0.25,22.1,26.8,"16:02:48",1
"23/07/24","16:20",0.0,35.0,47.0,1007.8,318.2,1.5,3.9,310.8,0.23,22.0,26.7,"16:10:16",1
"23/07/24","16:30",0.0,35.0,47.9,1007.8,318.9,1.5,2.5,359.9,0.20,22.4,26.8,"16:22:56",1
"23/07/24","16:40",0.0,34.8,47.8,1007.6,311.0,1.6,4.2,335.9,0.18,22.1,26.9,"16:34:00",1
"23/07/24","16:50",0.0,34.5,49.9,1007.4,309.0,1.6,3.5,338.6,0.15,22.6,26.7,"16:41:44",1
"23/07/24","17:00",0.0,34.3,50.1,1007.1,314.6,1.3,5.0,326.5,0.13,22.5,26.8,"16:59:12",1
"23/07/24","17:10",0.0,34.3,51.0,1007.1,274.8,1.3,4.0,305.0,0.11,22.7,26.8,"17:00:16",1
"23/07/24","17:20",0.0,34.1,52.0,1007.1,236.0,1.3,2.8,230.8,0.05,22.9,26.9,"17:18:48",1
"23/07/24","17:30",0.0,33.9,52.1,1007.1,244.4,1.3,3.3,239.6,0.01,22.7,26.6,"17:27:44",1
"23/07/24","17:40",0.0,33.3,54.5,1007.1,245.8,1.6,3.9,236.8,0.01,22.9,26.7,"17:32:16",1
"23/07/24","17:50",0.0,32.9,56.1,1007.1,258.5,1.5,4.4,243.0,0.01,23.0,26.8,"17:44:16",1
"23/07/24","18:00",0.0,32.6,56.1,1007.4,256.1,1.5,2.9,241.4,0.00,22.8,26.7,"17:58:00",1
"23/07/24","18:10",0.0,32.3,57.1,1007.1,253.9,1.5,3.7,238.1,0.00,22.8,26.7,"18:06:00",1
"23/07/24","18:20",0.0,31.9,58.0,1006.9,238.4,1.6,4.2,238.7,0.00,22.6,26.6,"18:19:20",1
"23/07/24","18:30",0.0,31.6,59.2,1006.7,282.7,1.1,3.4,245.5,0.00,22.7,26.8,"18:25:20",1
"23/07/24","18:40",0.0,31.2,59.8,1006.9,280.5,1.1,2.9,272.9,0.00,22.5,26.6,"18:38:00",1
"23/07/24","18:50",0.0,31.0,60.4,1006.4,282.7,1.2,3.4,220.0,0.00,22.5,26.8,"18:44:32",1
"23/07/24","19:00",0.0,30.7,60.5,1007.1,288.2,1.0,3.3,230.2,0.00,22.2,26.5,"18:59:20",1
"23/07/24","19:10",0.0,30.5,60.3,1006.7,297.4,1.2,3.1,330.8,0.00,22.0,26.3,"19:07:28",1
"23/07/24","19:20",0.0,30.2,60.5,1006.4,263.7,1.0,3.1,290.5,0.00,21.8,26.4,"19:14:16",1
"23/07/24","19:30",0.0,30.0,61.3,1006.4,246.9,1.0,3.2,233.8,0.00,21.8,26.6,"19:22:08",1
"23/07/24","19:40",0.0,29.6,62.3,1006.2,337.0,0.8,1.9,34.0,0.00,21.7,26.3,"19:35:28",1
"23/07/24","19:50",0.0,29.3,63.4,1006.7,298.8,0.6,1.4,262.7,0.00,21.7,26.4,"19:40:08",1
"23/07/24","20:00",0.0,29.1,65.0,1007.1,331.5,0.7,2.0,324.6,0.00,21.9,26.2,"19:59:20",1
"23/07/24","20:10",0.0,28.8,66.0,1007.4,336.4,1.3,3.7,353.6,0.00,21.9,26.3,"20:02:56",1
"23/07/24","20:20",0.0,28.7,66.8,1007.6,323.3,0.8,2.0,348.9,0.00,22.0,26.3,"20:19:12",1
"23/07/24","20:30",0.0,28.4,67.5,1007.4,333.7,1.1,2.5,317.1,0.00,21.8,26.2,"20:22:56",1
"23/07/24","20:40",0.0,28.1,68.5,1007.6,340.7,1.2,2.7,340.3,0.00,21.8,26.2,"20:39:52",1
"23/07/24","20:50",0.0,27.9,69.3,1008.1,340.1,1.3,2.9,332.8,0.00,21.8,26.0,"20:40:32",1
"23/07/24","21:00",0.0,27.8,69.3,1008.3,334.2,1.3,3.4,347.4,0.00,21.7,26.2,"20:50:24",1
"23/07/24","21:10",0.0,27.9,69.0,1008.3,315.8,1.3,2.6,329.5,0.00,21.7,26.0,"21:04:32",1
"23/07/24","21:20",0.0,27.9,68.8,1008.3,325.6,1.5,3.4,346.5,0.00,21.7,26.1,"21:10:40",1
"23/07/24","21:30",0.0,27.7,69.1,1008.8,335.2,1.2,2.7,328.5,0.00,21.6,26.1,"21:20:08",1
"23/07/24","21:40",0.0,27.8,68.7,1009.0,318.8,1.2,4.1,337.1,0.00,21.6,26.1,"21:36:16",1
"23/07/24","21:50",0.0,27.8,68.6,1008.8,303.2,0.7,2.7,314.7,0.00,21.5,25.9,"21:48:32",1
"23/07/24","22:00",0.0,27.9,68.6,1008.8,302.6,1.2,3.6,278.8,0.00,21.6,25.9,"21:56:32",1
"23/07/24","22:10",0.0,27.9,68.5,1009.0,327.0,1.3,2.5,316.2,0.00,21.6,25.9,"22:06:40",1
"23/07/24","22:20",0.0,27.6,69.1,1009.0,344.0,1.2,2.4,326.0,0.00,21.5,25.8,"22:11:28",1
"23/07/24","22:30",0.0,27.3,70.0,1009.0,341.6,1.3,2.8,350.2,0.00,21.4,25.8,"22:21:44",1
"23/07/24","22:40",0.0,27.2,70.7,1009.5,0.8,1.6,2.9,11.7,0.00,21.5,25.6,"22:39:28",1
"23/07/24","22:50",0.0,27.0,71.4,1009.3,343.3,0.8,1.7,348.4,0.00,21.4,25.7,"22:45:20",1
"23/07/24","23:00",0.0,26.8,71.9,1008.8,12.5,0.6,1.8,352.7,0.00,21.3,25.7,"22:58:48",1
"23/07/24","23:10",0.0,26.7,72.4,1009.0,320.3,0.6,1.3,349.5,0.00,21.4,25.6,"23:00:24",1
"23/07/24","23:20",0.0,26.3,73.9,1009.0,327.0,1.0,2.2,359.3,0.00,21.3,25.6,"23:18:24",1
"23/07/24","23:30",0.0,26.4,74.0,1009.3,321.1,1.1,2.6,330.0,0.00,21.4,25.4,"23:24:24",1
"23/07/24","23:40",0.0,26.4,73.9,1009.5,346.6,1.0,1.9,352.4,0.00,21.4,25.5,"23:32:56",1
"23/07/24","23:50",0.0,26.4,74.0,1009.3,8.0,0.8,2.6,328.4,0.00,21.4,25.5,"23:49:04",1
"23/07/24","24:00",0.0,26.4,73.9,1009.5,314.2,0.8,1.4,90.8,0.00,21.4,25.4,"23:56:24",1
